Hourly Weather Ceara

Today, 15 June, Tuesday

Time Temperature Precipitation Wind Pressure Humidity
00:00 +23°C° 0 mm 1 mps 742 mmHg 71%
01:00 +22°C° 0 mm 1 mps 742 mmHg 75%
02:00 +22°C° 0 mm 1 mps 742 mmHg 80%
03:00 +21°C° 0 mm 1 mps 742 mmHg 85%
04:00 +21°C° 0 mm 1 mps 742 mmHg 86%
05:00 +21°C° 0 mm 1 mps 743 mmHg 88%
06:00 +21°C° 0 mm 1 mps 743 mmHg 89%
07:00 +23°C° 0 mm 1 mps 743 mmHg 78%
08:00 +26°C° 0 mm 2 mps 744 mmHg 67%
09:00 +29°C° 0 mm 2 mps 744 mmHg 56%
10:00 +30°C° 0 mm 2 mps 744 mmHg 50%
11:00 +32°C° 0 mm 2 mps 743 mmHg 45%
12:00 +34°C° 0 mm 2 mps 742 mmHg 40%
13:00 +35°C° 0 mm 2 mps 742 mmHg 39%
14:00 +35°C° 0 mm 2 mps 741 mmHg 38%
15:00 +35°C° 0 mm 2 mps 740 mmHg 37%
16:00 +32°C° 0 mm 1 mps 740 mmHg 42%
17:00 +30°C° 0 mm 1 mps 741 mmHg 48%
18:00 +29°C° 0 mm 1 mps 741 mmHg 53%
19:00 +28°C° 0 mm 1 mps 741 mmHg 55%
20:00 +25°C° 0 mm 0 mps 741 mmHg 58%
21:00 +24°C° 0 mm 0 mps 742 mmHg 60%
22:00 +26°C° 0 mm 1 mps 742 mmHg 65%
23:00 +25°C° 0 mm 1 mps 742 mmHg 70%

Tomorrow, 16 June, Wednesday

Time Temperature Precipitation Wind Pressure Humidity
00:00 +24°C° 0 mm 2 mps 742 mmHg 75%
01:00 +24°C° 0.1 mm 1 mps 742 mmHg 79%
02:00 +24°C° 0.1 mm 1 mps 742 mmHg 84%
03:00 +23°C° 0.1 mm 1 mps 741 mmHg 88%
04:00 +23°C° 0 mm 1 mps 742 mmHg 90%
05:00 +23°C° 0 mm 1 mps 742 mmHg 93%
06:00 +22°C° 0 mm 1 mps 742 mmHg 95%
07:00 +25°C° 0 mm 1 mps 742 mmHg 84%
08:00 +27°C° 0 mm 1 mps 743 mmHg 73%
09:00 +30°C° 0 mm 1 mps 743 mmHg 62%
10:00 +31°C° 0.1 mm 2 mps 743 mmHg 57%
11:00 +32°C° 0.1 mm 2 mps 742 mmHg 51%
12:00 +34°C° 0.1 mm 2 mps 742 mmHg 46%
13:00 +34°C° 0 mm 2 mps 741 mmHg 45%
14:00 +34°C° 0 mm 2 mps 741 mmHg 45%
15:00 +34°C° 0 mm 2 mps 740 mmHg 45%
16:00 +31°C° 0 mm 2 mps 740 mmHg 50%
17:00 +30°C° 0 mm 2 mps 740 mmHg 55%
18:00 +28°C° 0 mm 2 mps 740 mmHg 60%
19:00 +27°C° 0 mm 1 mps 741 mmHg 63%
20:00 +27°C° 0 mm 1 mps 741 mmHg 67%
21:00 +26°C° 0 mm 1 mps 741 mmHg 70%
22:00 +25°C° 0 mm 1 mps 741 mmHg 74%
23:00 +25°C° 0 mm 2 mps 742 mmHg 78%

Day after tomorrow, 17 June, Thursday

Time Temperature Precipitation Wind Pressure Humidity
00:00 +24°C° 0 mm 2 mps 742 mmHg 82%
01:00 +23°C° 0.5 mm 1 mps 742 mmHg 87%
02:00 +23°C° 0.5 mm 1 mps 742 mmHg 92%
03:00 +22°C° 0.5 mm 1 mps 742 mmHg 97%
04:00 +20°C° 0 mm 0 mps 742 mmHg 98%
05:00 +20°C° 0 mm 0 mps 742 mmHg 98%
06:00 +20°C° 0 mm 0 mps 743 mmHg 98%
07:00 +24°C° 0 mm 1 mps 743 mmHg 89%
08:00 +26°C° 0 mm 1 mps 744 mmHg 79%
09:00 +29°C° 0 mm 2 mps 744 mmHg 70%
10:00 +30°C° 0.1 mm 2 mps 743 mmHg 61%
11:00 +33°C° 0.1 mm 3 mps 743 mmHg 53%
12:00 +35°C° 0.1 mm 3 mps 742 mmHg 45%
13:00 +34°C° 0 mm 3 mps 742 mmHg 45%
14:00 +34°C° 0 mm 2 mps 741 mmHg 45%
15:00 +34°C° 0 mm 2 mps 740 mmHg 44%
16:00 +32°C° 0 mm 1 mps 740 mmHg 48%
17:00 +31°C° 0 mm 1 mps 741 mmHg 51%
18:00 +30°C° 0 mm 1 mps 741 mmHg 54%
19:00 +29°C° 0 mm 1 mps 741 mmHg 58%
20:00 +27°C° 0 mm 1 mps 742 mmHg 62%
21:00 +26°C° 0 mm 1 mps 742 mmHg 66%
22:00 +25°C° 0.7 mm 1 mps 742 mmHg 76%
23:00 +24°C° 0.7 mm 1 mps 742 mmHg 85%

18 June, Friday

Time Temperature Precipitation Wind Pressure Humidity
00:00 +23°C° 0.7 mm 1 mps 743 mmHg 94%
01:00 +23°C° 1 mm 1 mps 743 mmHg 96%
02:00 +23°C° 1 mm 1 mps 743 mmHg 97%
03:00 +23°C° 1 mm 1 mps 743 mmHg 98%
04:00 +21°C° 0.1 mm 0 mps 743 mmHg 98%
05:00 +21°C° 0.1 mm 0 mps 743 mmHg 98%
06:00 +21°C° 0.1 mm 0 mps 744 mmHg 98%
07:00 +24°C° 0 mm 1 mps 744 mmHg 89%
08:00 +26°C° 0 mm 2 mps 744 mmHg 80%
09:00 +28°C° 0 mm 2 mps 745 mmHg 71%
10:00 +30°C° 0 mm 3 mps 744 mmHg 62%
11:00 +31°C° 0 mm 3 mps 744 mmHg 54%
12:00 +34°C° 0 mm 3 mps 743 mmHg 46%
13:00 +34°C° 0 mm 2 mps 743 mmHg 45%
14:00 +34°C° 0 mm 2 mps 742 mmHg 45%
15:00 +33°C° 0 mm 1 mps 742 mmHg 45%
16:00 +31°C° 0 mm 1 mps 742 mmHg 49%
17:00 +30°C° 0 mm 1 mps 742 mmHg 53%
18:00 +28°C° 0 mm 1 mps 742 mmHg 58%
19:00 +27°C° 0.2 mm 1 mps 743 mmHg 65%
20:00 +26°C° 0.2 mm 1 mps 743 mmHg 72%
21:00 +25°C° 0.2 mm 1 mps 744 mmHg 80%
22:00 +25°C° 0.7 mm 1 mps 744 mmHg 85%
23:00 +24°C° 0.7 mm 1 mps 744 mmHg 90%

19 June, Saturday

Time Temperature Precipitation Wind Pressure Humidity
00:00 +23°C° 0.7 mm 1 mps 743 mmHg 94%
01:00 +23°C° 0.2 mm 1 mps 743 mmHg 95%
02:00 +21°C° 0.2 mm 0 mps 743 mmHg 96%
03:00 +21°C° 0.2 mm 0 mps 743 mmHg 96%
04:00 +23°C° 0 mm 1 mps 743 mmHg 96%
05:00 +22°C° 0 mm 1 mps 744 mmHg 95%
06:00 +21°C° 0 mm 2 mps 744 mmHg 95%
07:00 +24°C° 0 mm 2 mps 745 mmHg 84%
08:00 +25°C° 0 mm 3 mps 745 mmHg 74%
09:00 +27°C° 0 mm 4 mps 745 mmHg 63%
10:00 +28°C° 0 mm 3 mps 745 mmHg 59%
11:00 +30°C° 0 mm 3 mps 744 mmHg 54%
12:00 +31°C° 0 mm 3 mps 744 mmHg 50%
13:00 +31°C° 0 mm 3 mps 743 mmHg 50%
14:00 +31°C° 0 mm 2 mps 743 mmHg 49%
15:00 +31°C° 0 mm 1 mps 742 mmHg 49%
16:00 +30°C° 0 mm 1 mps 742 mmHg 52%
17:00 +29°C° 0 mm 1 mps 742 mmHg 55%
18:00 +28°C° 0 mm 1 mps 742 mmHg 58%
19:00 +27°C° 0 mm 1 mps 743 mmHg 60%
20:00 +27°C° 0 mm 1 mps 743 mmHg 61%
21:00 +27°C° 0 mm 1 mps 743 mmHg 63%
22:00 +26°C° 0 mm 1 mps 743 mmHg 66%
23:00 +25°C° 0 mm 1 mps 743 mmHg 70%

20 June, Sunday

Time Temperature Precipitation Wind Pressure Humidity
00:00 +24°C° 0 mm 1 mps 743 mmHg 73%
01:00 +23°C° 0 mm 1 mps 743 mmHg 76%
02:00 +23°C° 0 mm 1 mps 743 mmHg 78%
03:00 +22°C° 0 mm 1 mps 743 mmHg 81%
04:00 +22°C° 0 mm 1 mps 743 mmHg 81%
05:00 +22°C° 0 mm 1 mps 744 mmHg 82%
06:00 +21°C° 0 mm 1 mps 744 mmHg 83%
07:00 +24°C° 0 mm 2 mps 744 mmHg 73%
08:00 +26°C° 0 mm 2 mps 744 mmHg 63%
09:00 +29°C° 0 mm 3 mps 745 mmHg 54%
10:00 +30°C° 0 mm 3 mps 744 mmHg 49%
11:00 +33°C° 0 mm 3 mps 744 mmHg 45%
12:00 +34°C° 0 mm 3 mps 743 mmHg 41%
13:00 +35°C° 0 mm 4 mps 743 mmHg 41%
14:00 +35°C° 0 mm 4 mps 742 mmHg 41%
15:00 +35°C° 0 mm 4 mps 741 mmHg 41%
16:00 +33°C° 0 mm 3 mps 742 mmHg 46%
17:00 +31°C° 0 mm 2 mps 742 mmHg 51%
18:00 +29°C° 0 mm 1 mps 742 mmHg 56%
19:00 +29°C° 0.1 mm 2 mps 742 mmHg 59%
20:00 +28°C° 0.1 mm 2 mps 743 mmHg 63%
21:00 +28°C° 0.1 mm 2 mps 743 mmHg 66%
22:00 +26°C° 0.6 mm 2 mps 743 mmHg 75%
23:00 +25°C° 0.6 mm 2 mps 743 mmHg 84%
Show more

We Need Your Consent

Meteoprog and our Service Providers may store and access personal data such as cookies, device identifiers or other similar technologies on your device and process such data to personalise content and ads, as well as provide social media features and to analyse the traffic.

  • Store and/or access information on your device

    Cookies, device identifiers or other information can be stored or accessed on your device for the purposes indicated above.

  • Personalised ads and content, ad and content measurement, audience insights, and products development

    Ads and content can be personalised based on a profile. More data can be added to better personalise ads and content. Ad and content performance can be measured. Insights about the audience who saw the ads and content can be derived. Such data can be used to develop or improve user’s experience, systems and software.

By clicking ‘I Agree’ you will allow the use of indicated cookies, device identifiers, web beacons or other similar technologies. Your settings can be changed in the browser on your device.

For certain purposes, legitimate interests may be relied on, rather than consent. You can read more about this in our Privacy and Cookie Policy.